Location: Presov
(49.0000°N, 21.2500°E)
Time: 06:42:53
(UTC+02:00)

Transit 2A Rocket - Pass Details

Date: 19 April 2021
Orbit: 594 x 909 km, 66.7° (Epoch: 07 May)

Event Time Altitude Azimuth Distance (km) Brightness Sun altitude
Rises 16:54:25 0° 230° (SW) 2,930 9.0 24.8°
Reaches altitude 10° 16:56:48 10° 236° (SW) 1,991 8.5 24.5°
Maximum altitude 17:01:06 48° 311° (NW) 791 5.9 23.8°
Drops below altitude 10° 17:05:18 10° 27° (NNE) 1,938 6.8 23.1°
Sets 17:07:36 0° 33° (NNE) 2,844 7.6 22.7°
